When you browse on this site, cookies collect data to enhance your experience and personalize the content and advertising you see.
Visit our Privacy Policy to learn more. By continuing to use the site, you agree to this use of cookies and data.
  • în România
  • Lista ţărilor
  • Pe 7 zile
  • Temperatura apei
  • Hartă satelitară
  • Meteo pe hartă
  • Widget-uri
  • user-avatar
    Intrare

    Meteo pe oră la Korytnikovo

    Astăzi, 25 Martie, Luni

    Timp Temperatura Precipitaţii Vânt Presiune Umiditate
    00:00 -3°C° 0 mm 2 m/s 735 mmHg 88%
    01:00 -3°C° 0 mm 2 m/s 735 mmHg 87%
    02:00 -5°C° 0 mm 3 m/s 735 mmHg 86%
    03:00 -5°C° 0 mm 3 m/s 735 mmHg 86%
    04:00 -4°C° 0 mm 2 m/s 735 mmHg 87%
    05:00 -4°C° 0 mm 2 m/s 735 mmHg 88%
    06:00 -4°C° 0 mm 3 m/s 735 mmHg 85%
    07:00 -2°C° 0 mm 3 m/s 735 mmHg 82%
    08:00 -1°C° 0 mm 3 m/s 735 mmHg 79%
    09:00 0°C° 0 mm 3 m/s 735 mmHg 75%
    10:00 +2°C° 0 mm 3 m/s 734 mmHg 71%
    11:00 +3°C° 0 mm 3 m/s 734 mmHg 67%
    12:00 +3°C° 0.1 mm 4 m/s 734 mmHg 65%
    13:00 +4°C° 0.1 mm 4 m/s 734 mmHg 64%
    14:00 +5°C° 0.1 mm 4 m/s 734 mmHg 63%
    15:00 +4°C° 0.1 mm 3 m/s 733 mmHg 67%
    16:00 +4°C° 0.1 mm 2 m/s 733 mmHg 71%
    17:00 +3°C° 0.1 mm 2 m/s 733 mmHg 75%
    18:00 +2°C° 0 mm 2 m/s 733 mmHg 78%
    19:00 +1°C° 0 mm 2 m/s 733 mmHg 80%
    20:00 -1°C° 0 mm 2 m/s 733 mmHg 82%
    21:00 -2°C° 0 mm 2 m/s 733 mmHg 82%
    22:00 -2°C° 0 mm 2 m/s 732 mmHg 82%
    23:00 -2°C° 0 mm 2 m/s 732 mmHg 81%

    Mâine, 26 Martie, Marţi

    Timp Temperatura Precipitaţii Vânt Presiune Umiditate
    00:00 -2°C° 0 mm 2 m/s 732 mmHg 82%
    01:00 -2°C° 0 mm 2 m/s 731 mmHg 83%
    02:00 -2°C° 0 mm 2 m/s 731 mmHg 84%
    03:00 -3°C° 0 mm 2 m/s 731 mmHg 85%
    04:00 -3°C° 0 mm 2 m/s 731 mmHg 86%
    05:00 -3°C° 0 mm 2 m/s 730 mmHg 87%
    06:00 -2°C° 0.2 mm 2 m/s 730 mmHg 87%
    07:00 -1°C° 0.2 mm 3 m/s 730 mmHg 87%
    08:00 0°C° 0.2 mm 3 m/s 730 mmHg 87%
    09:00 0°C° 0.1 mm 3 m/s 731 mmHg 84%
    10:00 0°C° 0.1 mm 3 m/s 731 mmHg 80%
    11:00 -1°C° 0.1 mm 4 m/s 731 mmHg 76%
    12:00 -1°C° 0 mm 4 m/s 731 mmHg 72%
    13:00 -1°C° 0 mm 4 m/s 731 mmHg 69%
    14:00 -1°C° 0 mm 4 m/s 731 mmHg 65%
    15:00 -1°C° 0 mm 4 m/s 732 mmHg 66%
    16:00 -1°C° 0 mm 3 m/s 732 mmHg 67%
    17:00 -2°C° 0 mm 3 m/s 732 mmHg 67%
    18:00 -4°C° 0 mm 3 m/s 732 mmHg 72%
    19:00 -3°C° 0 mm 2 m/s 733 mmHg 76%
    20:00 -2°C° 0 mm 1 m/s 733 mmHg 81%
    21:00 -5°C° 0 mm 2 m/s 733 mmHg 81%
    22:00 -5°C° 0 mm 2 m/s 734 mmHg 82%
    23:00 -5°C° 0 mm 2 m/s 734 mmHg 83%

    Poimâine, 27 Martie, Miercuri

    Timp Temperatura Precipitaţii Vânt Presiune Umiditate
    00:00 -5°C° 0 mm 2 m/s 734 mmHg 84%
    01:00 -6°C° 0 mm 3 m/s 734 mmHg 86%
    02:00 -5°C° 0 mm 3 m/s 735 mmHg 87%
    03:00 -5°C° 0.1 mm 3 m/s 735 mmHg 87%
    04:00 -5°C° 0.1 mm 3 m/s 735 mmHg 86%
    05:00 -5°C° 0.1 mm 3 m/s 736 mmHg 86%
    06:00 -4°C° 0.1 mm 4 m/s 736 mmHg 82%
    07:00 -4°C° 0.1 mm 4 m/s 737 mmHg 79%
    08:00 -4°C° 0.1 mm 5 m/s 737 mmHg 75%
    09:00 -4°C° 0.1 mm 5 m/s 738 mmHg 73%
    10:00 -4°C° 0.1 mm 5 m/s 738 mmHg 70%
    11:00 -2°C° 0.1 mm 5 m/s 739 mmHg 67%
    12:00 -2°C° 0.1 mm 5 m/s 739 mmHg 66%
    13:00 -2°C° 0.1 mm 5 m/s 740 mmHg 65%
    14:00 -2°C° 0.1 mm 5 m/s 740 mmHg 64%
    15:00 -2°C° 0.1 mm 5 m/s 741 mmHg 66%
    16:00 -2°C° 0.1 mm 5 m/s 742 mmHg 68%
    17:00 -4°C° 0.1 mm 5 m/s 742 mmHg 69%
    18:00 -3°C° 0 mm 4 m/s 743 mmHg 73%
    19:00 -4°C° 0 mm 4 m/s 744 mmHg 77%
    20:00 -4°C° 0 mm 4 m/s 744 mmHg 81%
    21:00 -5°C° 0 mm 4 m/s 745 mmHg 83%
    22:00 -5°C° 0 mm 3 m/s 745 mmHg 84%
    23:00 -5°C° 0 mm 3 m/s 746 mmHg 86%

    28 Martie, Joi

    Timp Temperatura Precipitaţii Vânt Presiune Umiditate
    00:00 -6°C° 0 mm 3 m/s 746 mmHg 87%
    01:00 -6°C° 0 mm 3 m/s 747 mmHg 88%
    02:00 -7°C° 0 mm 3 m/s 748 mmHg 89%
    03:00 -6°C° 0 mm 2 m/s 748 mmHg 88%
    04:00 -6°C° 0 mm 2 m/s 748 mmHg 87%
    05:00 -6°C° 0 mm 2 m/s 749 mmHg 85%
    06:00 -5°C° 0 mm 2 m/s 749 mmHg 81%
    07:00 -5°C° 0 mm 3 m/s 750 mmHg 77%
    08:00 -4°C° 0 mm 3 m/s 750 mmHg 72%
    09:00 -2°C° 0 mm 3 m/s 750 mmHg 65%
    10:00 0°C° 0 mm 3 m/s 750 mmHg 57%
    11:00 +1°C° 0 mm 3 m/s 750 mmHg 49%
    12:00 +1°C° 0 mm 3 m/s 750 mmHg 49%
    13:00 +2°C° 0 mm 3 m/s 749 mmHg 49%
    14:00 +3°C° 0 mm 4 m/s 749 mmHg 49%
    15:00 +2°C° 0 mm 3 m/s 749 mmHg 55%
    16:00 +2°C° 0 mm 3 m/s 748 mmHg 62%
    17:00 +1°C° 0 mm 3 m/s 748 mmHg 68%
    18:00 +1°C° 0 mm 3 m/s 748 mmHg 74%
    19:00 0°C° 0 mm 3 m/s 748 mmHg 80%
    20:00 -1°C° 0 mm 3 m/s 747 mmHg 85%
    21:00 -1°C° 0 mm 3 m/s 747 mmHg 86%
    22:00 0°C° 0 mm 3 m/s 747 mmHg 87%
    23:00 0°C° 0 mm 3 m/s 747 mmHg 88%

    29 Martie, Vineri

    Timp Temperatura Precipitaţii Vânt Presiune Umiditate
    00:00 -1°C° 0 mm 4 m/s 746 mmHg 88%
    01:00 -1°C° 0 mm 4 m/s 746 mmHg 88%
    02:00 -1°C° 0 mm 4 m/s 746 mmHg 87%
    03:00 0°C° 0 mm 4 m/s 746 mmHg 88%
    04:00 0°C° 0 mm 4 m/s 746 mmHg 89%
    05:00 0°C° 0 mm 4 m/s 746 mmHg 90%
    06:00 0°C° 0 mm 4 m/s 746 mmHg 88%
    07:00 +1°C° 0 mm 4 m/s 746 mmHg 86%
    08:00 +1°C° 0 mm 4 m/s 746 mmHg 85%
    09:00 +2°C° 0 mm 5 m/s 746 mmHg 83%
    10:00 +2°C° 0 mm 5 m/s 746 mmHg 81%
    11:00 +3°C° 0 mm 5 m/s 746 mmHg 79%
    12:00 +5°C° 0 mm 5 m/s 745 mmHg 76%
    13:00 +7°C° 0 mm 5 m/s 745 mmHg 74%
    14:00 +8°C° 0 mm 5 m/s 745 mmHg 72%
    15:00 +7°C° 0 mm 4 m/s 745 mmHg 75%
    16:00 +8°C° 0 mm 3 m/s 745 mmHg 79%
    17:00 +7°C° 0 mm 3 m/s 745 mmHg 82%
    18:00 +5°C° 0 mm 3 m/s 745 mmHg 85%
    19:00 +4°C° 0 mm 3 m/s 745 mmHg 87%
    20:00 +3°C° 0 mm 3 m/s 744 mmHg 90%
    21:00 +3°C° 0 mm 3 m/s 744 mmHg 90%
    22:00 +2°C° 0 mm 3 m/s 744 mmHg 90%
    23:00 +2°C° 0 mm 3 m/s 744 mmHg 91%

    30 Martie, Sâmbătă

    Timp Temperatura Precipitaţii Vânt Presiune Umiditate
    00:00 +2°C° 0 mm 3 m/s 743 mmHg 90%
    01:00 +2°C° 0 mm 3 m/s 743 mmHg 90%
    02:00 +2°C° 0 mm 3 m/s 743 mmHg 90%
    03:00 +1°C° 0 mm 3 m/s 742 mmHg 91%
    04:00 +1°C° 0 mm 3 m/s 742 mmHg 92%
    05:00 +1°C° 0 mm 3 m/s 742 mmHg 93%
    06:00 0°C° 0 mm 4 m/s 742 mmHg 91%
    07:00 +1°C° 0 mm 4 m/s 742 mmHg 90%
    08:00 +1°C° 0 mm 4 m/s 741 mmHg 88%
    09:00 +3°C° 0 mm 4 m/s 741 mmHg 86%
    10:00 +3°C° 0 mm 4 m/s 741 mmHg 85%
    11:00 +4°C° 0 mm 4 m/s 741 mmHg 83%
    12:00 +4°C° 0 mm 4 m/s 741 mmHg 82%
    13:00 +4°C° 0 mm 4 m/s 741 mmHg 80%
    14:00 +4°C° 0 mm 4 m/s 740 mmHg 79%
    15:00 +4°C° 0 mm 4 m/s 740 mmHg 79%
    16:00 +4°C° 0 mm 4 m/s 740 mmHg 80%
    17:00 +4°C° 0 mm 3 m/s 739 mmHg 81%
    18:00 +3°C° 0 mm 3 m/s 739 mmHg 82%
    19:00 +3°C° 0 mm 3 m/s 739 mmHg 84%
    20:00 +3°C° 0 mm 3 m/s 739 mmHg 85%
    21:00 +3°C° 0 mm 3 m/s 738 mmHg 85%
    22:00 +3°C° 0 mm 4 m/s 738 mmHg 85%
    23:00 +3°C° 0 mm 4 m/s 737 mmHg 85%
    Arată mai mult